Location: Unspecified
(41.5000°N, 0.0000°E)
Time: 22:08:57
(UTC+00:00)

Courier 1B Rocket - Pass Details

Date: 26 June 2019
Orbit: 920 x 1202 km, 28.2° (Epoch: 14 July)

Event Time Altitude Azimuth Distance (km) Brightness Sun altitude
Rises 05:19:10 0° 252° (WSW) 3,861 7.4 7.6°
Reaches altitude 10° 05:22:30 10° 240° (WSW) 2,853 6.8 8.2°
Maximum altitude 05:27:53 25° 188° (S) 1,913 6.4 9.1°
Drops below altitude 10° 05:33:02 10° 136° (SE) 2,699 7.7 10.0°
Sets 05:36:05 0° 123° (ESE) 3,609 8.5 10.5°
